TimeEST,TemperatureF,Dew PointF,Humidity,Sea Level PressureIn,VisibilityMPH,Wind Direction,Wind SpeedMPH,Gust SpeedMPH,PrecipitationIn,Events,Conditions,WindDirDegrees,DateUTC
12:16 AM,28.4,24.8,86,29.91,2.0,Calm,Calm,-,N/A,,Clear,0,2013-12-03 05:16:00
12:37 AM,28.4,24.8,86,29.91,3.0,Calm,Calm,-,N/A,,Clear,0,2013-12-03 05:37:00
12:41 AM,26.6,24.8,93,29.91,2.5,Calm,Calm,-,N/A,,Partly Cloudy,0,2013-12-03 05:41:00
12:49 AM,26.6,24.8,93,29.91,3.0,Calm,Calm,-,N/A,,Mostly Cloudy,0,2013-12-03 05:49:00
12:53 AM,27.0,25.0,92,29.91,1.8,Calm,Calm,-,N/A,,Mostly Cloudy,0,2013-12-03 05:53:00
12:58 AM,28.4,24.8,86,29.91,0.2,Calm,Calm,-,N/A,Fog,Light Freezing Fog,0,2013-12-03 05:58:00
1:53 AM,28.0,27.0,96,29.92,0.2,Calm,Calm,-,N/A,Fog,Light Freezing Fog,0,2013-12-03 06:53:00
2:53 AM,28.9,27.0,92,29.93,0.2,Calm,Calm,-,N/A,Fog,Light Freezing Fog,0,2013-12-03 07:53:00
3:53 AM,28.9,28.0,96,29.92,0.2,Calm,Calm,-,N/A,Fog,Light Freezing Fog,0,2013-12-03 08:53:00
4:49 AM,28.4,26.6,93,29.91,0.5,North,3.5,-,N/A,Fog,Light Freezing Fog,350,2013-12-03 09:49:00
4:53 AM,28.9,27.0,92,29.91,0.8,Calm,Calm,-,N/A,,Mist,0,2013-12-03 09:53:00
5:03 AM,28.4,26.6,93,29.91,1.5,Calm,Calm,-,N/A,,Overcast,0,2013-12-03 10:03:00
5:21 AM,28.4,26.6,93,29.91,0.5,Calm,Calm,-,N/A,Fog,Light Freezing Fog,0,2013-12-03 10:21:00
5:43 AM,30.2,28.4,93,29.91,0.2,Calm,Calm,-,N/A,Fog,Light Freezing Fog,0,2013-12-03 10:43:00
5:53 AM,30.0,28.0,92,29.91,0.2,Calm,Calm,-,N/A,Fog,Light Freezing Fog,0,2013-12-03 10:53:00
6:53 AM,30.9,28.0,89,29.93,0.2,Calm,Calm,-,N/A,Fog,Light Freezing Fog,0,2013-12-03 11:53:00
7:53 AM,32.0,28.9,88,29.93,0.2,East,3.5,-,N/A,Fog,Fog,90,2013-12-03 12:53:00
8:17 AM,32.0,28.4,87,29.94,0.5,Calm,Calm,-,N/A,Fog,Fog,0,2013-12-03 13:17:00
8:31 AM,32.0,28.4,87,29.94,1.0,Calm,Calm,-,N/A,,Overcast,0,2013-12-03 13:31:00
8:53 AM,32.0,30.0,92,29.95,1.2,Calm,Calm,-,N/A,,Overcast,0,2013-12-03 13:53:00
9:22 AM,32.0,30.2,93,29.95,2.5,Calm,Calm,-,N/A,,Overcast,0,2013-12-03 14:22:00
9:47 AM,32.0,30.2,93,29.96,0.8,Calm,Calm,-,N/A,,Overcast,0,2013-12-03 14:47:00
9:53 AM,32.0,30.0,92,29.96,0.2,Calm,Calm,-,N/A,Fog,Fog,0,2013-12-03 14:53:00
10:53 AM,33.1,32.0,96,29.95,0.2,Calm,Calm,-,N/A,Fog,Fog,0,2013-12-03 15:53:00
11:31 AM,33.8,32.0,93,29.94,0.5,Calm,Calm,-,N/A,Fog,Fog,0,2013-12-03 16:31:00
11:48 AM,33.8,32.0,93,29.93,1.5,Calm,Calm,-,N/A,,Overcast,0,2013-12-03 16:48:00
11:53 AM,34.0,32.0,92,29.93,1.8,Calm,Calm,-,N/A,,Overcast,0,2013-12-03 16:53:00
12:05 PM,33.8,32.0,93,29.93,2.0,Calm,Calm,-,N/A,,Overcast,0,2013-12-03 17:05:00
12:14 PM,33.8,33.8,100,29.93,1.8,Calm,Calm,-,N/A,,Overcast,0,2013-12-03 17:14:00
12:26 PM,33.8,33.8,100,29.93,2.0,Calm,Calm,-,N/A,,Overcast,0,2013-12-03 17:26:00
12:53 PM,36.0,33.1,89,29.91,2.0,Calm,Calm,-,N/A,,Overcast,0,2013-12-03 17:53:00
1:14 PM,37.4,33.8,87,29.91,3.0,Calm,Calm,-,N/A,,Overcast,0,2013-12-03 18:14:00
1:27 PM,37.4,33.8,87,29.91,3.0,Calm,Calm,-,N/A,,Overcast,0,2013-12-03 18:27:00
1:53 PM,37.9,34.0,86,29.90,3.0,Calm,Calm,-,N/A,,Mostly Cloudy,0,2013-12-03 18:53:00
2:08 PM,39.2,33.8,81,29.89,4.0,Calm,Calm,-,N/A,,Haze,0,2013-12-03 19:08:00
2:53 PM,39.9,35.1,83,29.90,4.0,Calm,Calm,-,N/A,,Haze,0,2013-12-03 19:53:00
3:53 PM,41.0,34.0,76,29.92,4.0,Calm,Calm,-,N/A,,Haze,0,2013-12-03 20:53:00
4:53 PM,36.0,32.0,86,29.94,4.0,Calm,Calm,-,N/A,,Clear,0,2013-12-03 21:53:00
5:53 PM,33.1,30.0,89,29.96,4.0,Calm,Calm,-,N/A,,Clear,0,2013-12-03 22:53:00
6:53 PM,30.0,27.0,88,29.97,4.0,Calm,Calm,-,N/A,,Clear,0,2013-12-03 23:53:00
7:53 PM,28.9,26.1,89,29.98,7.0,Calm,Calm,-,N/A,,Clear,0,2013-12-04 00:53:00
8:53 PM,27.0,25.0,92,29.99,3.0,Calm,Calm,-,N/A,,Clear,0,2013-12-04 01:53:00
9:00 PM,26.6,24.8,93,29.99,2.5,Calm,Calm,-,N/A,,Clear,0,2013-12-04 02:00:00
9:07 PM,28.4,24.8,86,29.99,3.0,Calm,Calm,-,N/A,,Clear,0,2013-12-04 02:07:00
9:43 PM,28.4,24.8,86,30.00,2.5,Calm,Calm,-,N/A,,Partly Cloudy,0,2013-12-04 02:43:00
9:53 PM,27.0,24.1,89,30.00,2.5,Calm,Calm,-,N/A,,Scattered Clouds,0,2013-12-04 02:53:00
10:00 PM,26.6,24.8,93,30.00,3.0,Calm,Calm,-,N/A,,Mostly Cloudy,0,2013-12-04 03:00:00
10:25 PM,26.6,24.8,93,30.00,3.0,Calm,Calm,-,N/A,,Scattered Clouds,0,2013-12-04 03:25:00
10:36 PM,26.6,23.0,86,30.00,2.5,Calm,Calm,-,N/A,,Scattered Clouds,0,2013-12-04 03:36:00
10:45 PM,26.6,23.0,86,30.00,4.0,Calm,Calm,-,N/A,,Scattered Clouds,0,2013-12-04 03:45:00
10:53 PM,26.1,23.0,88,30.01,4.0,Calm,Calm,-,N/A,,Mostly Cloudy,0,2013-12-04 03:53:00
11:18 PM,26.6,24.8,93,30.02,1.8,Calm,Calm,-,N/A,,Overcast,0,2013-12-04 04:18:00
11:26 PM,26.6,24.8,93,30.02,0.2,Calm,Calm,-,N/A,Fog,Light Freezing Fog,0,2013-12-04 04:26:00
11:44 PM,26.6,24.8,93,30.02,1.0,Calm,Calm,-,N/A,,Overcast,0,2013-12-04 04:44:00
11:53 PM,28.0,25.0,88,30.02,1.2,Calm,Calm,-,N/A,,Overcast,0,2013-12-04 04:53:00
11:57 PM,28.4,26.6,93,30.02,0.2,Calm,Calm,-,N/A,Fog,Light Freezing Fog,0,2013-12-04 04:57:00